Redding, CA

3:12 AM PDT on August 18, 2017 (GMT -0700)
Redding Municipal

Weather History for KRDD - December, 2013

Change the Weather History Date:

Thursday, December 5, 2013

  Actual Average Record
Temperature  
Mean Temperature 41 °F -  
Max Temperature 49 °F 56 °F 69 °F (2008)
Min Temperature 32 °F 37 °F 24 °F (1992)
Degree Days  
Heating Degree Days 24    
Cooling Degree Days 0    
Moisture  
Dew Point 10 °F    
Average Humidity 27    
Maximum Humidity 38    
Minimum Humidity 16    
Precipitation  
Precipitation 0.00 in 0.18 in 1.24 in (2010)
Month to date precipitation T 0.91  
Year to date precipitation 12.42 29.26  
Since 1 July precipitation 3.12  
Sea Level Pressure  
Sea Level Pressure 30.13 in    
Wind  
Wind Speed 7 mph (North)    
Max Wind Speed 14 mph    
Max Gust Speed 20 mph    
Visibility 10 miles    
Events      
T = Trace of Precipitation, MM = Missing Value Source: NWS Daily Summary

Daily Weather History Graph

Daily Weather History Graph

Search for Another Location

Airport or City:

Trip Planner

Search our weather history database for the weather conditions in past years. The results will help you decide how hot, cold, wet, or windy it might be!

Date:

Astronomy

Dec. 05, 2013 Rise Set
Actual Time 7:17 AM PST 4:42 PM PST
Civil Twilight 6:46 AM PST 5:12 PM PST
Nautical Twilight 6:12 AM PST 5:46 PM PST
Astronomical Twilight 5:39 AM PST 6:19 PM PST
Moon 9:41 AM PST (12/5) 8:09 PM PST (12/5)
Length of Visible Light 10h 25m
Length of Day
9h 24m
Waxing Crescent, 11% of the Moon is Illuminated
Dec 5
Waxing Crescent
Dec 9
First Quarter
Dec 17
Full
Dec 25
Last Quarter
Jan 1
New

Hourly Weather History & Observations

Time (PST) Temp. Windchill Dew Point Humidity Pressure Visibility Wind Dir Wind Speed Gust Speed Precip Events Conditions
12:53 AM 37.0 °F 28.9 °F 10.0 °F 33% 30.12 in 10.0 mi North 12.7 mph - N/A   Clear
1:53 AM 36.0 °F 30.3 °F 10.0 °F 34% 30.12 in 10.0 mi North 6.9 mph - N/A   Clear
2:53 AM 36.0 °F 29.0 °F 10.0 °F 34% 30.13 in 10.0 mi North 9.2 mph - N/A   Clear
3:53 AM 34.0 °F 28.0 °F 10.0 °F 37% 30.13 in 10.0 mi NNW 6.9 mph - N/A   Clear
4:53 AM 34.0 °F 26.6 °F 9.0 °F 35% 30.12 in 10.0 mi North 9.2 mph - N/A   Clear
5:53 AM 33.1 °F 27.7 °F 9.0 °F 37% 30.14 in 10.0 mi NNW 5.8 mph - N/A   Clear
6:53 AM 32.0 °F 27.5 °F 9.0 °F 38% 30.15 in 10.0 mi NW 4.6 mph - N/A   Clear
7:53 AM 33.1 °F 26.9 °F 9.0 °F 37% 30.16 in 10.0 mi North 6.9 mph - N/A   Clear
8:53 AM 37.0 °F 31.0 °F 8.1 °F 30% 30.16 in 10.0 mi North 8.1 mph - N/A   Clear
9:53 AM 39.9 °F 34.5 °F 8.1 °F 27% 30.17 in 10.0 mi NNW 8.1 mph - N/A   Clear
10:53 AM 42.1 °F 36.1 °F 8.1 °F 25% 30.15 in 10.0 mi North 10.4 mph - N/A   Clear
11:53 AM 44.1 °F 39.5 °F 7.0 °F 22% 30.13 in 10.0 mi North 8.1 mph - N/A   Clear
12:53 PM 46.0 °F 43.1 °F 7.0 °F 20% 30.11 in 10.0 mi NE 5.8 mph - N/A   Clear
1:53 PM 46.9 °F - 6.1 °F 19% 30.09 in 10.0 mi Calm Calm - N/A   Clear
2:53 PM 48.9 °F - 5.0 °F 17% 30.07 in 10.0 mi Variable 3.5 mph - N/A   Clear
3:53 PM 46.9 °F - 7.0 °F 20% 30.08 in 10.0 mi SE 5.8 mph - N/A   Clear
4:53 PM 42.1 °F 40.2 °F 10.9 °F 28% 30.08 in 10.0 mi SSE 3.5 mph - N/A   Clear
5:53 PM 37.9 °F 35.5 °F 12.9 °F 36% 30.09 in 10.0 mi South 3.5 mph - N/A   Clear
6:53 PM 33.1 °F 30.0 °F 16.0 °F 50% 30.11 in 10.0 mi ENE 3.5 mph - N/A   Clear
7:53 PM 30.9 °F 27.5 °F 14.0 °F 50% 30.12 in 10.0 mi North 3.5 mph - N/A   Clear
8:53 PM 28.9 °F 25.2 °F 14.0 °F 54% 30.13 in 10.0 mi North 3.5 mph - N/A   Clear
9:53 PM 28.0 °F - 15.1 °F 58% 30.14 in 10.0 mi Calm Calm - N/A   Clear
10:53 PM 27.0 °F - 16.0 °F 63% 30.15 in 10.0 mi Calm Calm - N/A   Clear
11:53 PM 27.0 °F - 15.1 °F 61% 30.14 in 9.0 mi Calm Calm - N/A   Clear